Location: R�serve Fauniques des Laurentides
(47.3100°N, 71.1900°W)
Time: 00:08:14
(UTC-04:00)

Cosmos 1674 - Visible Passes

Search period start: 20 June 2018 00:00
Search period end: 30 June 2018 00:00
Orbit: 498 x 520 km, 82.5° (Epoch: 19 June)

Date Brightness Start Highest point End Pass type
(mag) Time Alt. Az. Time Alt. Az. Time Alt. Az.
20 Jun 2.6 22:08:45 10° S 22:12:33 84° E 22:16:25 10° N visible
21 Jun 2.7 21:51:38 10° S 21:55:24 65° E 21:59:14 10° NNE visible
21 Jun 5.7 23:30:04 10° W 23:31:27 12° WNW 23:32:51 10° NW visible
22 Jun 3.0 21:34:34 10° S 21:38:16 50° E 21:42:01 10° NNE visible
22 Jun 5.5 23:12:01 10° W 23:14:10 14° WNW 23:16:20 10° NNW visible
23 Jun 5.4 22:54:16 10° WSW 22:56:54 18° WNW 22:59:34 10° NNW visible
24 Jun 5.1 22:36:38 10° WSW 22:39:39 22° WNW 22:42:42 10° NNW visible
25 Jun 4.8 22:19:08 10° SW 22:22:24 27° WNW 22:25:44 10° NNW visible
26 Jun 4.4 22:01:41 10° SW 22:05:11 33° WNW 22:08:44 10° N visible
27 Jun 4.0 21:44:19 10° SSW 21:47:58 42° WNW 21:51:40 10° N visible
28 Jun 3.5 21:27:00 10° SSW 21:30:47 54° WNW 21:34:35 10° N visible
